Temp
50 56 58 58 60 62 53 56 53 57 60 62 64 66 69 73 76 75 75 72 76 76 82 85 84 84 85 84 82 82 79 79 78 78 79 77 76 76 77 77 78 77 77 77
44 57 59 58 62 63 63 58 60 62 59 70 68 71 69 70 72 71 73 74 73 74 77 80 85 84 86 84 82 82 80 79 79 78 77 77 77 77 77 77 77 76 76 77
37 50 55 50 58 59 59 58 58 56 64 69 66 68 65 66 67 67 68 70 70 70 74 75 78 80 85 85 83 81 80 80 78 78 77 77 77 77 77 76 76 75 76 76
38 43 38 51 65 65 59 57 58 59 62 64 65 66 66 67 65 65 66 66 68 69 71 75 76 79 80 83 80 81 79 79 78 78 78 77 77 77 77 75 76 75 76 75
36 35 46 57 59 59 55 53 58 57 59 63 66 67 62 65 65 64 64 65 66 68 71 72 73 74 77 76 78 79 78 78 78 79 77 77 76 76 77 76 75 75 75 73
37 35 37 46 59 66 62 47 58 59 58 61 63 55 58 62 63 64 64 66 64 66 73 70 70 73 78 79 75 78 79 79 79 79 79 77 78 77 77 76 76 76 75 74
37 37 44 53 59 64 49 47 57 58 59 61 58 59 61 64 64 64 64 65 65 66 69 67 67 71 75 75 75 78 79 79 79 80 79 79 78 79 76 76 75 76 75 72
37 35 36 55 58 50 55 58 59 57 58 59 61 62 63 63 61 62 61 63 65 65 64 66 66 66 67 66 67 70 78 79 79 79 80 79 78 79 77 76 75 75 74 72
39 42 52 54 53 56 59 55 56 57 59 61 61 61 60 59 58 60 60 61 63 62 63 64 65 66 64 64 66 67 74 77 78 79 80 80 79 78 77 76 76 75 74 73
44 46 49 52 57 56 56 57 60 61 59 60 59 61 59 57 56 58 58 59 60 61 60 60 62 65 65 65 66 67 70 75 76 78 76 79 80 80 79 77 76 75 75 73
42 46 48 51 51 55 56 58 58 62 60 59 59 60 59 57 56 56 56 57 59 59 59 59 61 62 63 64 66 66 68 75 75 77 76 77 78 73 80 80 77 78 77 76
38 43 43 44 50 54 54 53 58 57 60 60 60 59 59 57 57 56 56 57 56 57 58 59 59 60 61 62 64 66 68 73 75 75 76 77 71 66 52 52 53 59 61 71
39 44 44 48 50 53 51 53 56 56 59 58 58 59 59 57 57 57 56 57 58 56 57 58 59 60 60 61 63 67 68 68 71 72 76 74 72 71 68 58 49 48 54 57
46 45 44 49 47 50 51 54 57 60 62 59 59 59 59 57 57 57 56 59 60 59 57 57 59 59 60 61 63 66 67 61 71 72 72 75 73 72 71 68 68 65 50 52
48 49 49 52 48 49 51 52 53 54 57 59 57 58 58 57 55 55 57 60 60 59 58 57 58 58 60 61 62 64 66 67 70 70 71 70 71 71 70 70 67 62 57 52
47 49 52 50 49 47 49 53 50 52 55 56 55 55 55 55 54 55 56 58 57 55 57 57 58 58 60 60 61 62 65 62 63 68 69 68 68 67 68 68 66 65 66 60
45 44 47 47 46 47 49 51 51 51 54 56 54 60 59 54 52 52 54 58 58 58 57 57 57 58 59 59 61 62 64 65 62 66 67 68 67 65 65 66 66 64 61 58
46 46 47 47 46 48 50 52 53 52 51 55 58 56 56 51 50 51 54 52 55 56 58 57 57 58 59 61 61 60 61 62 64 64 64 64 66 66 65 65 65 63 61 59
47 47 47 48 48 50 49 50 50 51 52 54 56 54 52 51 50 50 50 49 49 50 54 54 59 55 56 61 62 61 60 60 60 61 61 60 62 62 61 60 61 63 63 63
47 48 48 48 49 50 48 50 51 51 51 52 53 51 50 48 49 49 49 48 48 48 52 54 54 53 54 58 62 62 60 59 59 57 56 56 57 58 57 54 57 56 56 57
47 48 48 48 49 50 49 50 50 49 50 51 53 52 47 47 49 48 47 47 50 52 54 57 54 53 56 58 59 60 60 59 59 57 56 56 55 54 54 54 54 54 53 53
47 47 48 49 49 49 51 51 51 50 49 49 51 53 49 47 49 48 46 46 49 53 51 56 54 57 57 59 57 56 56 58 58 57 57 56 55 54 53 52 52 51 51 50
46 48 48 48 48 49 51 51 52 52 50 51 52 51 51 48 47 47 50 50 50 52 53 56 56 56 57 53 56 55 55 56 56 56 56 56 56 55 54 53 54 53 52 50
47 48 48 51 51 51 48 50 53 54 54 56 55 53 53 52 49 48 51 52 53 53 52 55 55 54 54 53 54 55 54 54 54 54 56 53 57 56 55 54 53 53 52 50
47 47 47 48 48 50 50 52 53 52 53 53 55 55 55 53 51 52 52 51 53 52 51 53 54 54 53 51 53 51 51 52 53 53 53 53 54 55 54 53 52 52 51 50
45 44 46 46 46 49 48 50 47 48 51 51 51 52 53 53 52 51 49 51 51 51 50 50 51 52 52 52 51 51 50 50 50 51 52 52 52 52 51 51 52 51 50 49
46 47 47 46 46 46 48 47 46 45 46 47 49 50 51 51 50 50 50 50 49 49 49 50 50 51 49 50 50 50 50 49 48 49 49 48 48 48 49 51 51 50 49 46
MSLP
1012.30 1011.05 1009.84 1008.86 1007.93 1007.24 1007.24 1006.76 1006.78 1006.22 1005.74 1005.12 1004.97 1004.64 1004.24 1003.87 1003.73 1005.20 1004.28 1004.22 1004.50 1005.00 1003.89 1003.76 1004.30 1004.66 1005.51 1006.06 1006.94 1007.74 1008.66 1009.42 1009.88 1010.31 1010.90 1011.46 1011.98 1012.32 1012.60 1012.73 1012.90 1013.01 1013.31 1013.42
1012.56 1011.00 1009.94 1008.86 1007.77 1007.28 1007.10 1006.64 1005.97 1005.77 1005.91 1004.97 1005.06 1005.08 1005.30 1005.46 1005.43 1005.36 1005.78 1005.14 1004.67 1006.04 1004.95 1004.38 1003.38 1003.63 1004.70 1005.63 1006.29 1007.07 1007.96 1008.56 1009.31 1009.96 1010.51 1011.05 1011.51 1011.97 1012.24 1012.42 1012.51 1012.82 1013.09 1013.22
1013.84 1011.94 1010.39 1009.36 1008.34 1007.65 1008.04 1007.95 1006.96 1006.44 1005.93 1005.46 1005.85 1006.11 1006.93 1007.07 1007.39 1007.14 1007.33 1007.93 1007.60 1008.24 1006.30 1004.79 1004.38 1004.46 1004.56 1004.68 1005.76 1006.69 1007.33 1008.14 1008.86 1009.52 1010.14 1010.63 1011.01 1011.54 1011.82 1012.06 1012.19 1012.58 1012.88 1013.03
1014.97 1012.98 1011.42 1009.85 1008.68 1008.36 1008.72 1009.09 1008.63 1007.78 1007.60 1007.48 1006.79 1007.36 1007.84 1008.06 1008.97 1009.04 1008.74 1008.64 1008.32 1006.27 1006.32 1005.04 1004.22 1003.98 1004.08 1004.82 1005.25 1006.26 1007.17 1007.77 1008.38 1009.00 1009.57 1010.11 1010.64 1011.09 1011.33 1011.62 1011.83 1012.30 1012.69 1012.94
1015.64 1014.27 1011.94 1010.23 1010.03 1009.67 1009.42 1010.36 1010.28 1009.54 1008.62 1008.20 1007.99 1007.48 1008.39 1008.76 1009.01 1009.47 1009.74 1009.91 1008.94 1007.94 1006.61 1005.84 1004.75 1004.06 1004.09 1004.89 1005.39 1006.00 1006.60 1007.30 1007.90 1008.40 1008.98 1009.57 1010.12 1010.52 1010.77 1011.15 1011.51 1011.91 1012.27 1012.84
1016.28 1015.07 1013.18 1012.25 1011.16 1009.93 1009.68 1011.30 1011.56 1010.80 1009.98 1009.23 1008.79 1009.80 1011.07 1010.74 1010.13 1009.86 1010.14 1009.74 1008.74 1007.89 1006.96 1006.11 1005.25 1004.62 1004.19 1004.80 1005.47 1005.57 1006.08 1006.62 1007.25 1007.80 1008.38 1008.88 1009.37 1009.82 1010.14 1010.50 1010.98 1011.54 1012.10 1012.58
1016.69 1015.68 1013.74 1013.18 1011.81 1009.92 1011.10 1013.77 1012.66 1011.95 1011.06 1010.99 1010.76 1012.48 1012.32 1011.52 1011.52 1011.16 1010.99 1010.36 1009.62 1008.68 1007.76 1007.38 1006.57 1005.30 1004.97 1005.76 1006.08 1005.86 1005.71 1006.17 1006.78 1007.21 1007.72 1008.16 1008.73 1009.19 1009.66 1010.21 1010.72 1011.28 1011.88 1012.59
1017.12 1016.43 1015.55 1014.17 1012.40 1012.89 1014.08 1013.49 1013.38 1012.94 1012.45 1011.98 1012.75 1011.96 1011.87 1012.78 1012.80 1012.16 1011.81 1011.09 1010.19 1009.39 1008.99 1008.52 1007.64 1007.11 1006.66 1006.72 1007.11 1006.60 1006.23 1005.91 1006.31 1006.73 1007.16 1007.76 1008.25 1008.76 1009.22 1009.84 1010.52 1011.13 1011.79 1012.58
1017.76 1017.75 1017.21 1016.02 1015.48 1015.15 1014.28 1013.98 1013.72 1012.80 1012.60 1012.64 1012.90 1012.78 1014.28 1014.26 1013.97 1013.39 1012.93 1012.23 1011.36 1010.74 1010.40 1009.92 1009.12 1008.59 1008.37 1007.72 1007.11 1006.82 1006.48 1006.26 1006.23 1006.57 1006.84 1007.12 1007.69 1008.39 1009.16 1009.68 1010.28 1010.98 1011.55 1012.26
1018.65 1018.53 1018.18 1017.40 1016.43 1015.82 1015.33 1014.74 1014.16 1013.64 1013.22 1012.94 1013.73 1014.60 1015.09 1015.32 1014.52 1013.85 1013.65 1013.01 1012.38 1011.84 1011.54 1010.90 1010.17 1009.88 1009.49 1008.54 1007.44 1006.97 1007.02 1006.60 1006.18 1006.51 1006.90 1007.27 1007.76 1008.38 1008.76 1009.29 1009.85 1010.49 1011.22 1011.95
1019.80 1019.12 1018.39 1017.93 1017.98 1017.54 1016.86 1016.10 1015.50 1014.52 1014.07 1013.69 1013.89 1014.16 1014.20 1013.77 1014.07 1014.40 1014.28 1014.02 1013.41 1012.85 1012.63 1012.08 1011.36 1010.69 1009.86 1009.18 1008.21 1006.98 1007.28 1006.97 1006.53 1006.56 1006.86 1007.42 1008.04 1008.66 1008.90 1008.82 1009.31 1009.93 1010.68 1011.44
1021.21 1020.90 1020.38 1019.03 1018.38 1018.35 1017.78 1017.23 1016.35 1015.68 1014.74 1014.55 1014.26 1014.30 1014.16 1014.92 1015.12 1014.59 1014.15 1013.92 1013.60 1013.41 1013.18 1012.88 1012.10 1011.32 1010.57 1009.70 1008.85 1007.03 1007.39 1007.53 1006.52 1006.62 1006.84 1007.32 1008.19 1009.18 1009.49 1009.40 1009.43 1009.64 1010.02 1010.85
1021.38 1021.07 1020.66 1019.57 1018.80 1018.48 1018.06 1017.66 1016.84 1016.16 1015.55 1015.28 1015.27 1015.17 1014.78 1015.15 1015.34 1015.22 1014.82 1014.18 1013.89 1013.74 1013.74 1013.28 1012.36 1011.66 1010.72 1009.49 1007.69 1006.94 1007.96 1008.37 1007.62 1006.94 1006.93 1007.29 1007.98 1008.67 1009.28 1009.85 1009.51 1009.66 1009.79 1010.42
1020.92 1020.82 1020.16 1019.25 1018.86 1018.57 1018.24 1017.66 1017.02 1016.33 1015.94 1015.53 1015.22 1014.94 1014.78 1015.22 1015.83 1015.65 1014.85 1014.53 1014.46 1013.73 1013.50 1013.44 1012.37 1011.62 1011.10 1010.58 1009.52 1008.34 1008.78 1008.80 1007.75 1007.47 1007.29 1007.16 1007.37 1008.01 1008.48 1009.17 1009.68 1010.52 1010.84 1010.96
1020.65 1020.52 1020.12 1019.44 1019.01 1018.68 1018.45 1017.94 1017.20 1016.86 1016.52 1016.32 1016.02 1015.72 1015.98 1016.50 1016.48 1016.32 1015.59 1015.67 1015.35 1014.25 1013.93 1013.22 1012.73 1012.35 1011.58 1010.78 1009.76 1008.75 1009.30 1009.04 1008.17 1007.86 1007.84 1007.81 1008.42 1008.80 1009.13 1009.21 1009.65 1010.42 1011.35 1011.69
1020.50 1020.16 1019.61 1019.33 1019.23 1019.23 1018.99 1018.47 1017.92 1017.49 1017.04 1016.84 1016.38 1016.31 1016.56 1016.44 1016.35 1016.17 1015.95 1015.76 1015.18 1015.06 1014.67 1014.20 1013.34 1012.40 1011.73 1011.01 1008.95 1009.56 1009.80 1009.51 1009.35 1008.66 1007.82 1008.32 1008.94 1009.50 1009.61 1009.64 1007.67 1011.22 1011.73 1011.98
1020.48 1020.30 1020.03 1019.69 1019.69 1019.60 1019.41 1018.98 1018.55 1018.09 1017.76 1017.35 1016.90 1016.79 1016.96 1017.00 1017.09 1016.95 1016.61 1016.45 1016.30 1015.75 1015.27 1014.97 1014.39 1013.53 1012.71 1012.11 1011.77 1011.62 1011.13 1010.44 1010.36 1010.15 1008.45 1007.81 1007.84 1009.27 1010.12 1010.35 1010.67 1012.88 1012.80 1012.98
1020.84 1020.64 1020.52 1020.26 1020.09 1019.94 1019.49 1019.11 1018.75 1018.35 1018.48 1018.03 1017.50 1017.48 1017.78 1017.98 1018.19 1017.80 1017.32 1017.03 1016.81 1016.33 1015.97 1015.51 1015.07 1014.46 1013.88 1013.27 1012.77 1012.28 1011.60 1011.16 1011.38 1011.24 1010.04 1008.77 1008.29 1007.57 1009.82 1010.21 1011.12 1011.94 1012.84 1012.87
1021.11 1020.90 1020.67 1020.50 1020.26 1019.77 1019.51 1019.30 1019.16 1018.62 1019.05 1018.86 1018.22 1018.52 1018.72 1018.94 1019.00 1018.59 1017.92 1017.62 1017.49 1017.26 1016.89 1016.28 1015.69 1015.17 1014.58 1013.87 1013.32 1012.92 1012.46 1012.37 1012.07 1011.38 1010.57 1010.30 1009.94 1008.02 1008.15 1011.25 1012.06 1012.99 1013.56 1013.83
1021.35 1021.05 1020.77 1020.50 1020.23 1019.90 1019.52 1019.58 1019.41 1019.48 1019.80 1019.34 1018.88 1019.29 1019.51 1019.67 1019.38 1019.01 1018.50 1018.46 1018.17 1017.78 1016.96 1016.66 1016.30 1015.89 1015.40 1014.78 1014.06 1013.67 1013.50 1012.95 1012.46 1012.24 1012.16 1011.74 1011.76 1011.37 1007.61 1012.32 1014.81 1014.97 1015.29 1015.23
1021.77 1021.51 1021.49 1021.35 1021.02 1020.20 1019.82 1019.91 1019.86 1019.62 1019.95 1019.78 1019.74 1020.02 1020.14 1019.92 1019.75 1019.47 1019.24 1019.02 1018.59 1017.74 1017.14 1016.71 1016.49 1016.24 1016.00 1015.61 1015.08 1014.56 1014.04 1013.72 1013.62 1013.81 1013.64 1013.57 1013.25 1012.75 1013.12 1014.32 1015.52 1016.12 1016.58 1016.89
1021.68 1021.74 1021.64 1021.60 1021.38 1020.84 1020.48 1020.20 1020.26 1020.41 1020.60 1020.44 1020.45 1020.27 1020.44 1020.59 1020.10 1019.74 1019.68 1019.59 1018.90 1018.14 1017.84 1017.66 1017.28 1016.79 1016.57 1016.24 1015.90 1015.61 1015.44 1015.29 1015.14 1015.04 1014.89 1014.90 1014.78 1014.97 1015.20 1015.96 1016.45 1016.67 1016.97 1017.46
1021.56 1021.71 1021.70 1021.55 1021.44 1021.23 1021.22 1021.13 1020.95 1021.07 1021.08 1020.78 1020.68 1021.02 1021.08 1020.71 1020.50 1020.27 1019.98 1019.45 1018.90 1018.58 1018.40 1018.26 1017.91 1017.61 1017.40 1017.29 1017.20 1017.04 1016.81 1016.57 1016.41 1016.22 1016.10 1016.18 1016.24 1016.66 1016.92 1017.34 1017.49 1017.97 1018.28 1018.43
1021.06 1021.18 1021.34 1021.25 1021.25 1021.14 1021.16 1021.10 1021.09 1021.17 1020.94 1020.37 1020.61 1020.87 1020.79 1020.72 1020.82 1020.40 1019.79 1019.37 1018.99 1019.00 1019.13 1018.90 1018.53 1018.25 1018.10 1018.17 1018.02 1017.92 1017.97 1017.86 1017.64 1017.54 1017.54 1017.63 1017.76 1017.83 1018.04 1018.34 1018.66 1019.02 1019.12 1019.09
1020.82 1020.82 1020.80 1020.65 1020.87 1021.12 1021.00 1020.76 1020.78 1020.68 1020.71 1020.88 1020.88 1021.20 1020.84 1020.62 1020.91 1020.64 1020.05 1019.74 1019.45 1019.67 1019.72 1019.24 1018.90 1018.76 1018.75 1018.76 1018.80 1018.79 1018.72 1018.57 1018.67 1018.72 1018.64 1018.85 1019.13 1019.29 1019.58 1019.75 1019.80 1019.72 1019.70 1019.59
1020.95 1021.04 1021.11 1021.11 1021.29 1021.12 1021.20 1021.07 1021.32 1021.30 1021.08 1021.20 1021.28 1021.31 1021.10 1020.80 1020.84 1020.78 1020.40 1019.91 1020.04 1020.32 1020.31 1019.99 1019.72 1019.73 1019.54 1019.33 1019.33 1019.44 1019.34 1019.25 1019.32 1019.49 1019.62 1019.67 1019.71 1019.97 1020.19 1020.14 1020.11 1020.07 1020.18 1020.08
1021.01 1021.04 1021.22 1021.46 1021.32 1021.26 1021.31 1021.37 1021.50 1021.53 1021.36 1021.44 1021.48 1021.50 1021.21 1020.93 1020.95 1020.84 1020.71 1020.59 1020.83 1020.99 1020.89 1020.56 1020.41 1020.20 1020.11 1019.84 1019.81 1019.75 1019.87 1019.82 1019.72 1019.77 1019.88 1019.98 1020.08 1020.19 1020.22 1020.23 1020.18 1020.08 1020.06 1020.23
Wind_Speed
6 7 4 6 10 10 3 8 7 6 8 2 5 5 7 8 12 10 12 8 13 17 14 16 15 15 14 14 15 15 15 13 13 12 11 9 8 8 7 7 7 6 6 5
4 5 7 9 12 9 5 11 4 8 4 4 7 12 15 12 14 14 15 12 14 20 7 13 18 18 16 13 13 16 15 15 12 10 10 10 9 8 8 8 7 5 6 6
5 5 4 7 6 3 7 14 7 4 9 11 11 14 8 11 12 14 14 10 11 17 12 4 8 11 16 15 12 14 14 13 12 11 11 10 10 9 9 9 7 6 6 6
4 5 4 3 10 10 12 19 19 14 12 8 11 14 14 13 11 11 11 11 10 8 12 8 4 8 9 11 14 14 12 12 12 13 12 10 10 10 9 6 8 5 6 6
1 2 6 3 10 7 5 8 16 11 7 12 11 6 15 16 14 12 10 7 9 9 10 7 8 5 9 9 10 12 13 13 12 13 12 11 11 11 9 7 6 6 5 7
2 1 4 1 11 12 3 4 16 12 9 9 15 7 5 13 14 15 12 11 13 14 11 11 14 8 9 10 11 13 12 13 12 12 12 13 12 11 8 5 7 5 6 8
3 3 5 13 13 12 5 1 9 9 6 13 11 4 4 10 13 12 12 14 13 13 13 14 15 12 8 7 3 5 10 10 11 12 13 12 11 9 7 7 6 6 7 6
2 1 5 22 6 7 3 4 3 4 10 12 10 10 11 11 11 13 13 15 15 12 12 14 15 12 9 10 9 10 6 11 12 12 10 9 12 9 8 8 7 7 8 6
3 4 4 7 12 12 11 3 5 5 6 11 10 13 6 7 8 10 11 11 11 11 11 11 13 12 9 8 9 9 6 6 9 9 10 10 11 10 7 8 7 7 7 7
1 7 8 10 12 14 13 14 7 7 8 10 9 6 7 3 5 10 9 10 9 10 11 12 13 11 9 9 6 8 10 6 6 8 7 8 7 8 9 8 7 8 7 8
2 6 7 3 10 13 13 14 14 9 8 8 6 6 6 8 8 7 6 7 7 8 8 10 11 11 11 11 10 9 9 8 4 5 8 7 4 2 7 8 7 8 8 8
1 2 4 9 8 13 10 10 13 9 7 7 5 6 7 6 5 6 9 9 9 10 9 10 10 10 11 11 9 8 8 9 3 4 5 5 6 4 11 6 5 7 14 11
4 4 6 13 12 4 5 8 11 9 4 5 6 4 7 5 4 5 5 9 11 10 9 9 10 11 13 12 11 12 8 8 7 2 4 5 5 6 6 4 10 8 11 17
6 4 7 4 4 5 5 7 7 6 5 5 5 8 9 7 6 7 9 9 11 11 12 10 12 14 13 10 7 10 9 11 2 4 3 1 6 6 5 6 6 3 9 7
3 5 8 6 4 7 6 6 6 7 8 5 6 7 9 8 7 4 7 9 8 11 13 14 13 13 14 13 9 13 8 7 4 5 7 8 8 7 3 3 1 3 3 6
7 7 3 7 7 7 7 8 6 8 9 6 6 7 6 6 7 7 7 8 12 12 13 13 13 15 14 12 14 11 9 12 9 3 8 8 8 9 12 8 7 3 3 3
3 2 4 6 5 5 7 6 3 6 8 6 5 7 9 8 7 7 8 9 8 10 11 11 13 13 13 12 9 6 7 6 9 6 2 6 9 10 6 4 10 9 2 1
4 3 3 3 2 3 2 4 4 9 9 7 8 10 8 8 6 7 8 7 8 9 12 12 11 11 9 9 7 6 6 7 5 4 4 5 6 12 9 6 4 8 3 1
5 4 6 7 5 3 6 7 5 12 9 8 9 9 7 6 4 5 6 8 8 8 11 10 16 10 9 11 8 6 7 6 6 7 8 8 6 9 15 12 12 3 4 3
8 10 11 11 9 5 10 8 8 10 9 5 9 8 8 6 5 6 7 6 4 5 7 8 8 7 7 10 11 8 8 9 10 10 10 10 8 7 16 18 6 7 7 7
3 4 7 8 7 6 10 8 9 11 9 10 6 7 5 5 6 5 7 6 9 9 10 14 8 5 5 8 8 8 9 10 11 9 10 9 10 13 12 11 9 7 7 6
5 4 2 2 1 4 5 6 9 10 8 8 9 5 5 4 6 6 2 2 5 11 6 8 7 9 8 12 8 8 7 10 9 9 10 9 10 10 10 9 9 8 8 8
8 7 6 5 6 5 2 3 3 5 6 5 3 4 2 0 1 5 7 7 5 9 7 8 17 14 10 5 7 8 10 10 9 9 9 9 9 9 9 9 9 8 7 7
6 7 9 11 10 6 9 9 9 7 3 5 6 2 4 2 4 2 2 7 10 11 6 10 14 16 10 5 6 8 8 9 9 9 9 10 7 8 8 9 8 7 7 7
4 2 4 7 6 2 1 2 3 2 6 5 6 2 3 1 3 2 4 4 11 8 6 11 16 16 6 5 5 6 5 6 7 7 8 9 9 9 8 7 7 6 7 7
3 2 2 4 4 3 4 4 4 4 4 5 3 0 1 3 4 3 3 6 7 7 5 5 6 6 7 6 5 6 4 6 6 6 7 7 7 7 6 6 6 7 6 7
3 1 3 5 3 2 4 4 5 4 3 3 3 1 3 4 5 5 5 5 5 5 4 5 5 6 5 5 6 5 4 4 5 5 5 5 5 5 5 5 5 5 5 5
Wind_Direction
235 259 295 283 303 319 295 224 157 228 212 221 360 355 6 21 103 104 53 22 32 333 220 190 185 182 189 187 181 180 180 183 192 192 191 189 186 187 196 213 222 218 220 233
292 291 337 310 305 309 348 348 216 133 45 160 114 71 46 35 48 54 59 33 11 337 251 215 186 184 184 188 181 177 180 191 187 182 179 186 188 186 192 212 221 194 211 219
290 328 2 323 349 25 85 23 327 150 153 139 88 80 65 59 43 42 40 29 80 295 317 9 208 185 193 186 167 179 183 180 182 179 182 186 182 178 194 205 207 199 211 214
260 351 165 225 27 85 85 33 11 24 33 33 80 95 67 62 70 52 30 359 320 328 317 352 341 183 170 172 168 174 181 182 179 180 184 177 175 184 199 190 206 184 199 188
149 232 279 71 20 352 2 30 8 359 9 28 356 56 35 19 23 35 22 351 319 311 320 331 11 333 150 158 163 168 175 182 184 182 178 174 181 187 195 193 198 181 174 155
360 351 225 54 325 305 227 47 349 351 359 16 21 54 17 354 11 12 359 347 346 343 351 358 0 346 139 161 166 178 180 185 179 179 179 182 181 186 195 183 198 157 160 164
234 247 291 340 324 306 89 311 325 343 42 69 68 358 11 10 9 10 354 348 351 353 9 0 352 356 65 64 56 253 178 167 173 180 183 185 178 184 184 188 169 160 160 149
141 217 328 344 31 56 197 266 299 351 34 90 97 79 18 24 4 8 356 352 360 6 5 358 358 6 34 44 345 335 229 172 178 180 181 176 179 187 189 171 175 162 158 146
73 81 19 9 40 17 13 357 324 19 42 99 84 66 61 4 9 4 1 355 358 8 1 357 4 7 349 3 356 353 316 200 179 179 185 180 180 180 181 180 178 172 170 159
194 13 2 23 21 21 4 12 341 19 50 68 82 107 117 120 36 32 8 357 358 8 5 356 356 356 341 340 352 14 346 244 169 174 173 182 187 185 185 185 184 181 176 169
9 347 329 43 25 2 3 0 5 359 30 62 68 63 69 39 25 22 26 21 6 17 7 355 348 346 347 342 335 35 351 301 200 177 178 180 164 216 202 201 192 190 184 169
255 292 307 281 337 335 16 348 341 341 14 33 62 63 62 59 28 1 19 18 17 17 11 360 350 350 344 338 328 32 7 319 232 183 188 174 154 121 52 53 359 214 159 170
247 301 261 280 300 322 360 336 326 320 34 58 34 82 68 50 11 14 18 16 13 14 358 348 6 360 344 335 351 26 6 330 318 292 217 155 159 173 176 40 76 56 179 183
288 298 285 229 307 5 348 316 326 5 41 36 41 64 70 69 42 24 18 16 1 1 4 358 2 4 350 338 352 24 360 301 1 25 355 202 175 183 178 177 168 137 45 78
263 298 263 266 34 9 353 330 28 18 10 19 32 71 81 82 57 33 46 23 3 14 6 356 1 5 347 342 352 15 359 334 32 76 67 60 60 28 14 300 66 138 112 69
290 297 348 70 52 13 348 355 30 4 15 326 50 73 62 72 59 39 34 29 26 12 1 353 355 345 344 347 10 1 349 347 307 53 103 96 81 63 48 31 32 343 245 151
234 64 48 61 41 5 332 320 17 36 354 348 58 75 69 46 42 33 35 28 9 10 2 356 348 345 347 350 2 346 320 338 338 319 293 139 117 88 51 47 52 319 5 35
86 81 50 68 4 297 284 356 30 51 6 340 63 63 72 49 42 31 29 21 20 13 7 353 347 346 340 353 4 0 6 3 342 306 314 33 104 114 87 65 357 198 144 151
96 44 41 30 344 106 87 66 33 57 15 347 67 74 77 61 42 23 28 30 18 17 352 343 353 359 345 8 20 29 31 35 32 31 30 19 0 99 94 56 16 8 25 324
72 55 42 19 14 74 85 60 61 76 42 16 49 63 66 45 36 26 26 30 3 296 315 349 0 1 353 358 20 38 42 40 51 50 42 44 41 30 79 84 63 23 25 2
125 88 86 68 23 45 69 66 62 56 42 31 77 94 77 56 53 35 36 32 339 345 0 4 2 1 19 27 23 40 48 49 50 46 51 51 47 51 57 69 72 57 45 24
184 186 158 212 266 10 20 66 66 65 52 36 21 13 40 23 35 38 69 78 320 356 12 20 11 10 31 31 30 30 36 55 58 58 52 54 62 65 66 63 65 55 48 31
189 184 196 224 205 196 234 294 116 151 179 165 131 119 281 230 33 64 44 354 20 12 23 24 27 26 20 30 43 47 49 49 54 54 57 55 65 68 68 67 65 62 63 59
153 154 187 205 219 187 182 215 201 192 218 64 64 173 133 66 358 330 20 29 40 37 20 21 26 23 23 21 43 61 67 68 57 52 54 53 68 65 67 60 63 60 58 51
99 71 48 55 91 85 354 114 124 120 128 165 132 90 47 38 148 289 52 44 41 39 20 10 19 22 21 20 42 63 65 71 72 63 55 59 69 76 76 74 66 68 59 51
74 117 105 98 113 108 92 75 83 70 84 82 64 84 42 68 56 56 43 46 40 26 15 19 28 33 21 24 24 30 59 81 78 79 81 76 77 80 79 73 69 64 67 63
29 79 36 25 38 87 109 118 85 40 59 94 104 82 102 76 59 50 44 49 49 30 5 1 24 26 38 29 24 23 48 63 81 89 83 83 87 93 84 75 66 58 57 57